This demonstration page uses our WeatherBlox Daily Observations layout. Learn more.

Left ArrowRight Arrow

Hourly Observations for November 4, 2018

Temp ( °F °C ) Dew Point ( °F °C ) Humidity (%) Winds ( mph kmh ) Pressure ( in mb ) Visibility ( mi km ) Precip ( " mm )
12:53 am 00:53 Clear 40 4.4 33 0.6 77 77 SSW 13 20 29.88 1012 10 16 N/A
1:53 am 01:53 Clear 41 5 33 0.6 73 73 SSW 16 26 29.83 1010 10 16 N/A
1:53 am 01:53 Clear 42 5.6 33 0.6 71 71 SSW 13 20 29.77 1008 10 16 N/A
2:53 am 02:53 Mostly Clear 45 7.2 34 1.1 66 66 SSW 15 24 29.72 1007 10 16 N/A
3:53 am 03:53 Clear 45 7.2 33 0.6 63 63 SSW 17 28 29.67 1005 10 16 N/A
4:53 am 04:53 Mostly Cloudy 45 7.2 34 1.1 66 66 SSW 17 28 29.64 1004 10 16 N/A
5:53 am 05:53 Cloudy 47 8.3 33 0.6 59 59 SSW 23 37 29.59 1002 10 16 N/A
6:53 am 06:53 Partly Cloudy 45 7.2 35 1.7 68 68 SSW 21 33 29.57 1002 10 16 N/A
7:53 am 07:53 Cloudy 45 7.2 38 3.3 77 77 SSW 23 37 29.54 1000 10 16 N/A
8:53 am 08:53 Cloudy 49 9.4 36 2.2 61 61 SSW 23 37 29.48 998 10 16 N/A
9:53 am 09:53 Cloudy 50 10 36 2.2 59 59 SW 22 35 29.47 998 10 16 N/A
10:53 am 10:53 Cloudy 50 10 37 2.8 61 61 SW 22 35 29.45 997 10 16 N/A
11:53 am 11:53 Cloudy 51 10.6 37 2.8 59 59 SW 22 35 29.41 996 10 16 N/A
12:53 pm 12:53 Cloudy 53 11.7 36 2.2 52 52 WSW 18 30 29.40 996 10 16 N/A
1:53 pm 13:53 Cloudy 53 11.7 33 0.6 47 47 W 24 39 29.40 996 10 16 N/A
2:53 pm 14:53 Cloudy with Light Rain 52 11.1 34 1.1 50 50 W 17 28 29.40 996 10 16 N/A
3:53 pm 15:53 Cloudy 50 10 37 2.8 61 61 WNW 12 19 29.42 996 10 16 N/A
4:53 pm 16:53 Mostly Cloudy with Light Rain 50 10 36 2.2 59 59 W 24 39 29.46 998 10 16 N/A
5:53 pm 17:53 Cloudy 46 7.8 39 3.9 77 77 WNW 13 20 29.52 1000 10 16 0.01 0.25
6:53 pm 18:53 Cloudy with Light Rain 44 6.7 40 4.4 85 85 W 10 17 29.56 1001 10 16 0.01 0.25
7:53 pm 19:53 Cloudy with Light Rain 44 6.7 41 5 89 89 W 8 13 29.59 1002 10 16 0.01 0.25
8:39 pm 20:39 Cloudy with Rain 41 5 38 3.3 89 89 NNW 20 31 29.68 1005 4 6 0.06 1.52
8:53 pm 20:53 Cloudy with Light Rain 40 4.4 38 3.3 93 93 NW 12 19 29.64 1004 9 14 0.09 2.29
9:00 pm 21:00 Cloudy with Light Rain 39 4 37 3 93 93 NW 9 15 29.68 1005 10 16 N/A
9:53 pm 21:53 Cloudy with Light Rain 42 5.6 37 2.8 82 82 NW 14 22 29.65 1004 10 16 0.02 0.51
10:53 pm 22:53 Cloudy 40 4.4 38 3.3 93 93 WSW 13 20 29.67 1005 10 16 N/A
11:53 pm 23:53 Cloudy 40 4.4 37 2.8 89 89 W 14 22 29.70 1006 10 16 N/A

Powered by AerisWeather